Location: Austin
(30.3000°N, 97.7500°W)
Time: 06:41:40
(UTC-05:00)

Cosmos 2082 Rocket - Pass Details

Date: 16 June 2025
Orbit: 831 x 854 km, 71.0° (Epoch: 08 July)

Event Time Altitude Azimuth Distance (km) Brightness Sun altitude
Rises 05:06:33 0° 323° (NW) 3,418 5.4 -15.6°
Reaches altitude 10° 05:09:26 10° 310° (NW) 2,481 4.5 -15.1°
Maximum altitude 05:13:53 24° 259° (WSW) 1,701 3.3 -14.4°
Enters shadow 05:15:43 20° 231° (SW) 1,856 3.3 -14.1°
